Simultaneous Nadir Overpasses (SNOs) Predictions

Prediction of SNOs between GOES-15 and TERRA Satellite Orbit:

Table of predicted SNOs for the next 14.0 days since TLE Epoch: 8/31/2012
Index Date Time (GOES-15) GOES-15 Lat,Lon TERRA Lat,Lon Distance(km) Time Diff (sec)
1 09/01/2012 07:12:20 0.34,-134.22 1.11,-130.49 424.19 80
2 09/01/2012 19:30:56 -0.36,-134.23 -0.03,-135.65 161.59 80
3 09/03/2012 19:21:25 -0.35,-134.16 -0.64,-132.69 166.75 80
4 09/04/2012 07:40:09 0.37,-134.12 -0.42,-137.89 428.61 80
5 09/05/2012 19:09:14 -0.35,-134.09 -1.26,-129.74 494.55 80
6 09/06/2012 07:27:58 0.36,-134.04 0.20,-134.94 101.09 80
7 09/08/2012 07:18:26 0.36,-133.96 0.77,-131.97 225.91 80
8 09/08/2012 19:37:02 -0.37,-133.96 0.31,-137.13 361.29 80
9 09/10/2012 19:24:51
